Regional Weather Roundup
Issued by NWS Albany, NY

Home | Current Version | Previous Version | Text Only | Print | Product List | Glossary On
Versions: 1 2 3 4 5 6 7 8 9 10 11 12 13 14 15 16 17 18 19 20 21 22 23 24 25 26 27 28 29 30 31 32 33 34 35 36 37 38 39 40 41 42 43 44 45 46 47 48 49 50
000
ASUS41 KALY 011110
RWRALY

NEW YORK STATE HOURLY WEATHER ROUNDUP
NATIONAL WEATHER SERVICE ALBANY NY
700 AM EDT MON SEP 01 2014

NOTE: "FAIR" INDICATES FEW OR NO CLOUDS BELOW 12,000 FEET WITH NO
SIGNIFICANT WEATHER AND/OR NO OBSTRUCTIONS TO VISIBILITY.

NYZ032-033-038>043-046>054-057>066-NYZ062>081-011200-
EAST


CITY           SKY/WX    TMP DP  RH WIND       PRES   REMARKS
ALBANY         FOG       71  69  93 CALM      30.01R VSB 1
GLENS FALLS    FOG       68  67  96 CALM      30.00R VSB<1/4
POUGHKEEPSIE   CLOUDY    70  68  93 CALM      30.00R
MONTGOMERY     CLOUDY    68  67  96 SW3       30.02R FOG
WHITE PLAINS   CLOUDY    73  71  93 W3        30.01S FOG
ISLIP          CLOUDY    73  71  93 SW6       30.00R
NEW YORK CITY  CLOUDY    76  71  85 S3        30.00R
CENTRAL PARK   CLOUDY    75  71  87 VRB3      30.04R
$$

NYZ005>009-017-018-044>046-055-056-011200-
CENTRAL


CITY           SKY/WX    TMP DP  RH WIND       PRES   REMARKS
FULTON         PTCLDY    67  65  93 SW5       30.00R
SYRACUSE       MOCLDY    67  65  93 CALM      30.00R
ROME           CLOUDY    68  66  93 CALM      30.03R
ELMIRA         FOG       66  66 100 CALM      30.03S VSB 1/4
BINGHAMTON     FOG       66  65  96 SW5       30.06R VSB<1/4
MONTICELLO     CLOUDY    64  64 100 CALM      30.07S VSB<1/4
$$

NYZ026>034-041>043-011200-
NORTH


CITY           SKY/WX    TMP DP  RH WIND       PRES   REMARKS
WATERTOWN      CLOUDY    69  65  86 SW5       29.98S FOG
FORT DRUM      NOT AVBL
MASSENA        CLOUDY    67  67 100 SW6       29.96S FOG
SARANAC LAKE   MOCLDY    66  65  96 SW7       30.00R FOG
PLATTSBURGH    MOCLDY    64  63  96 CALM      29.95R FOG
$$

NYZ001>004-010>016-019>021-011200-
WEST


CITY           SKY/WX    TMP DP  RH WIND       PRES   REMARKS
NIAGARA FALLS  CLOUDY    70  68  93 S6        29.97S
BUFFALO        MOCLDY    69  66  90 S5        29.98F
DUNKIRK        MOCLDY    70  67  90 S7        29.98S
JAMESTOWN      CLOUDY    66  64  94 S6        30.04S VSB 1/2
WELLSVILLE     MOCLDY    67  65  93 W3        30.08S
ROCHESTER      CLEAR     67  65  93 S3        29.99F
PENN YAN       MOCLDY    67  66  97 SW3       30.03S FOG
$$

             KEY
       WCI = WIND CHILL INDEX
       VSB = VISIBILITY
       HX  = HEAT INDEX
$$


USA.gov is the U.S. government's official web portal to all federal, state and local government web resources and services.